www.pogodaiklimat.ru

Погода и климат >> Архив погоды >> Филиппины >> Тайябас


ПОГОДА в Тайябасе

  • Прогноз погоды в Тайябасе
  • Монитор погоды в Тайябасе

АРХИВ ПОГОДЫ в Тайябасе

Время (UTC), дата Ветер
(напр.,м/с)
 
Видим.   Явления Облачность Т
(С)
Тd
(С)
f
(%)
Тe
(С)
Тes
(С)
Комфортность P
(гПа)
Po
(гПа)
Тmin
(С)
Tmax
(С)
R
(мм)
R24
(мм)
S
(см)
09 11.02 СВ 3 22 км 5/3 540 м
[Cu med, cong Cs]
+55.5 +23.8 18 +65 +65 опасность
перегрева
1018.5 1000.5
12 11.02 С 3 22 км 5/3 540 м
[Cu med, cong Cs]
+24.4 +23.3 94 +33 +33 очень
душно
1020.1 1020.1 +29.0
15 11.02 С 2 22 км 6/4 540 м
[Cu med, cong Cs]
+24.0 +22.9 94 +32 +32 очень
душно
1020.4 1002.4
18 11.02 С 3 22 км слаб. ливневой дождь 8/4 540 м
[Sc Ac As]
+23.2 +22.1 94 +32 +32 очень
душно
1018.0 1000.1 2
21 11.02 СВ 3 20 км в посл. час ливневой дождь 8/8 540 м
[Sc]
+22.6 +21.6 94 +30 +30 очень
душно
1018.1 1000.1 1
00 12.02 СВ 2 20 км {ливн. осадки} 8/4 540 м
[Cu med, cong Ac As]
+24.2 +22.6 91 +32 +33 очень
душно
1019.5 1001.5 +22.0 3
03 12.02 В 4 20 км в посл. час ливневой дождь 8/4 540 м
[Cu med, cong Ac As]
+25.4 +24.2 93 +35 +39 очень
душно
1020.0 1002.0 1
06 12.02 СВ 3 20 км слаб. ливневой дождь 8/4 540 м
[Cu med, cong Ac As]
+27.0 +22.3 75 +35 +38 очень
душно
1017.9 1000.0 1
09 12.02 СВ 1 20 км слаб. ливневой дождь 10/4 540 м
[Cu med, cong Ac und]
+24.0 +22.6 92 +31 +32 очень
душно
1017.4 999.4 3
12 12.02 С 3 20 км осадки на расстоянии {ливн. осадки} 6/3 540 м
[Cu med, cong Ac As]
+23.2 +22.2 94 +32 +32 очень
душно
1019.0 1001.0 +28.0 10
15 12.02 С 2 18 км {ливн. осадки} 9/3 500 м
[Sc Cs]
+23.6 +22.2 92 +31 +31 очень
душно
1019.1 1001.1 0.0
18 12.02 СВ 3 20 км {ливн. осадки} 8/4 540 м
[Cu med, cong Cs]
+23.0 +20.8 87 +30 +30 очень
душно
1017.4 999.5 0.0
21 12.02 СВ 2 15 км слаб. ливневой дождь 10/5 500 м
[Sc As op]
+22.0 +20.6 92 +28 +28 душно 1017.5 999.4 8
00 13.02 С 2 20 км {ливн. осадки} 9/4 540 м
[Cu med, cong Ac As]
+24.0 +22.6 92 +31 +33 очень
душно
1019.1 1001.0 +21.5 22
03 13.02 С 3 20 км в посл. час ливневой дождь 8/4 540 м
[Cu med, cong Ac As]
+25.4 +23.5 89 +34 +39 очень
душно
1019.0 1001.0 0.5
06 13.02 СВ 2 20 км {ливн. осадки} 8/4 540 м
[Cu med, cong Ac As]
+26.6 +23.8 85 +37 +41 очень
душно
1016.4 998.5 0.5
09 13.02 С 3 20 км осадки на расстоянии {ливн. осадки} 8/4 540 м
[Cu med, cong Ac As]
+23.5 +22.8 96 +31 +31 очень
душно
1016.5 998.2 1
12 13.02 С 2 20 км осадки на расстоянии {ливн. осадки} 8/3 540 м
[Cu med, cong Ac As]
+23.0 +22.3 96 +31 +31 очень
душно
1018.0 1000.0 +27.5 1
15 13.02 С 2 20 км 8/4 540 м
[Cu med, cong Ac cuf]
+23.8 +22.4 92 +31 +31 очень
душно
1018.3 1000.3
18 13.02 С 3 20 км 8/4 540 м
[Cu med, cong Ac cuf]
+23.3 +22.2 94 +32 +32 очень
душно
1016.8 998.9
21 13.02 С 2 20 км 4/3 540 м
[Cu med, cong Ac cuf]
+22.9 +21.6 92 +31 +31 очень
душно
1016.8 998.8
00 14.02 СВ 3 25 км 6/4 600 м
[Cu med, cong Ac As]
+24.8 +23.0 90 +33 +35 очень
душно
1018.5 1000.5 +22.0 2
03 14.02 СВ 5 25 км {ливн. осадки} 5/3 600 м
[Cu med, cong Cs]
+27.4 +25.7 90 +40 +46 очень
душно
1018.4 1000.5 0.0
06 14.02 СВ 5 25 км {ливн. осадки} 6/4 600 м
[Cu med, cong Ac As]
+27.6 +26.7 95 +43 +46 опасность
перегрева
1016.8 998.9 0.0
09 14.02 СВ 3 25 км 5/3 600 м
[Cu med, cong Cs]
+24.4 +22.2 88 +32 +32 очень
душно
1016.2 998.2
12 14.02 С 3 25 км 5/3 600 м
[Cu med, cong Cs]
+23.8 +22.0 90 +31 +31 очень
душно
1018.0 1000.0 +29.0
15 14.02 С 2 20 км 4/3 540 м
[Cu med, cong Ac cuf]
+23.0 +21.6 92 +31 +31 очень
душно
1018.4 1000.5
18 14.02 С 2 20 км 4/3 540 м
[Cu med, cong Ac cuf]
+22.4 +21.3 94 +29 +29 очень
душно
1016.9 999.0
21 14.02 С 2 20 км 4/3 540 м
[Cu med, cong Ac cuf]
+21.8 +20.7 93 +28 +28 душно 1016.8 998.8
00 15.02 СВ 2 25 км 5/3 600 м
[Cu med, cong Cs]
+24.0 +22.6 92 +31 +34 очень
душно
1018.5 1000.5 +20.0 0.0
03 15.02 СВ 5 25 км 5/3 600 м
[Cu med, cong Cs]
+27.4 +22.2 73 +36 +42 очень
душно
1017.9 1000.0
06 15.02 СВ 6 25 км 6/3 600 м
[Cu med, cong Cs]
+28.0 +22.7 73 +37 +40 очень
душно
1015.9 998.0
09 15.02 СВ 6
{11}
25 км 6/3 540 м
[Cu med, cong Cs]
+26.2 +21.1 74 +33 +33 очень
душно
1015.5 997.5
12 15.02 С 3 22 км 4/1 540 м
[Cu med, cong Cs]
+24.2 +20.6 80 +30 +30 очень
душно
1017.5 999.5 +30.0
15 15.02 С 2 20 км 6/3 540 м
[Cu med, cong Ac cuf]
+24.0 +22.6 92 +31 +31 очень
душно
1018.1 1000.2
18 15.02 С 2 20 км 3/3 540 м
[Cu med, cong]
+23.0 +21.6 92 +31 +31 очень
душно
1016.3 998.4
21 15.02 С 2 20 км 5/3 540 м
[Cu med, cong Ac cuf]
+22.5 +21.2 92 +30 +30 очень
душно
1016.1 998.1
00 16.02 С 3 25 км 6/4 600 м
[Cu med, cong Ac As]
+24.6 +22.4 88 +32 +34 очень
душно
1018.0 1000.0 +22.0
03 16.02 СВ 5 25 км {ливн. осадки} 6/4 600 м
[Cu med, cong Ac As]
+27.4 +22.9 76 +36 +40 очень
душно
1017.9 1000.0 0.0
06 16.02 СВ 4 25 км {ливн. осадки} 5/3 600 м
[Cu med, cong Cs]
+28.0 +24.1 79 +39 +45 очень
душно
1014.9 997.0 0.0
09 16.02 С 3 25 км 3/3 600 м
[Cu med, cong]
+26.6 +22.4 78 +35 +35 очень
душно
1013.6 995.7
12 16.02 С 3 22 км 6/4 600 м
[Sc Ac As]
+24.2 +21.7 86 +31 +31 очень
душно
1015.2 997.4 +29.0
15 16.02 штиль 0 20 км 3/3 540 м
[Cu med, cong]
+22.8 +21.7 94 +31 +31 очень
душно
1016.1 998.2
18 16.02 С 2 20 км 3/3 540 м
[Cu med, cong]
+22.4 +21.3 94 +29 +29 очень
душно
1013.8 996.9
21 16.02 С 3 20 км 3/3 540 м
[Cu med, cong]
+22.1 +20.8 92 +28 +28 душно 1014.5 996.6
00 17.02 С 2 25 км 4/3 600 м
[Cu med, cong Ac cuf]
+24.6 +23.0 91 +33 +36 очень
душно
1016.2 998.2 +21.6
03 17.02 С 3 25 км 5/3 600 м
[Cu med, cong Ac cuf]
+27.1 +24.3 85 +38 +46 очень
душно
1016.9 999.0
06 17.02 СВ 3 25 км 5/4 600 м
[Cu med, cong Ac cuf]
+27.8 +24.4 82 +39 +45 очень
душно
1014.3 996.4
09 17.02 СВ 2 25 км 10/4 600 м
[Cu med, cong Ac und]
+25.5 +24.2 93 +35 +36 очень
душно
1014.0 996.0
12 17.02 С 3 25 км осадки на расстоянии {ливн. осадки} 10/4 600 м
[Cu med, cong Ac und]
+34.8 +23.0 50 +45 +45 опасность
перегрева
1015.4 997.5 +30.0
15 17.02 С 3 20 км в посл. час ливневой дождь 9/3 540 м
[Sc Ac trans]
+24.0 +22.4 91 +31 +31 очень
душно
1016.1 998.2 1
18 17.02 С 2 20 км {ливн. осадки} 10/3 540 м
[Cu med, cong Ac und]
+24.2 +22.3 89 +31 +31 очень
душно
1014.1 996.3 1
21 17.02 С 1 20 км 10/4 540 м
[Cu med, cong Ac und]
+23.6 +22.4 93 +31 +31 очень
душно
1014.3 996.4
00 18.02 СВ 5 25 км мгла {туман} 4/3 600 м
[Cu med, cong Ci sp]
+24.0 +22.9 94 +32 +33 очень
душно
1016.1 998.1 +22.0 0.5
03 18.02 Ю 1 22 км мгла {туман} 5/4 600 м
[Cu med, cong Ac As]
+27.3 +20.9 68 +34 +45 очень
душно
1016.8 998.9

 

Местоположение метеостанции Тайябас (Филиппины): широта 14.03 долгота 121.58 высота над уровнем моря 158 м.

В архиве по умолчанию представлена погода в Тайябасе за последнюю неделю. Архивные данные за месяц целиком и за предыдущие месяцы, начиная с января 2011 года, Вы можете получить, выбрав интересующий диапазон дат из раскрывающегося списка и нажав кнопку "Ввод!".


*Определитесь, кто Вы:
робот инопланетянин человек

Внимание! Время в таблицах - всемирное. Для получения местного времени необходимо прибавить поправку, которая равна 8 ч.

Смотрите также архив погоды в соседних городах и на ближайших метеорологических станциях:

Погода на Алабате (Филиппины) (47 км)
Погода на Амбулонге (Филиппины) (57 км)
Погода в Танае (Филиппины) (58 км)
Погода в Инфанте (Филиппины) (80 км)
Погода в Калапане (Филиппины) (80 км)
Погода в Аэропорту Ninoy Aquino (Филиппины) (83 км)
Погода в Маниле (Филиппины) (89 км)
Погода в Сангли Пойнт (Филиппины) (89 км)
Погода в Научном саду (Филиппины) (91 км)
Погода в Даете (Филиппины) (151 км)

Пояснения к столбцам:

Ветер - указаны скорость ветра в м/с - средняя за 10 мин, порывы в срок и между сроками (в фигурных скобках) и направление, откуда дует ветер: С - северный, СВ - северо-восточный, В - восточный, ЮВ - юго-восточный, Ю - южный, ЮЗ - юго-западный, З - западный, СЗ - северо-западный.
Видимость - горизонтальная дальность видимости в метрах или километрах. При видимости от 1 до 10 км при отсутствии осадков обычно наблюдается дымка, при ухудшении видимости до 1 км и менее - туман. В сухую погоду видимость может ухудшаться дымом, пылью или мглою.
Явления - указаны атмосферные явления, наблюдавшиеся в срок или в последний час перед сроком; фигурными скобками обозначены явления, наблюдавшиеся между сроками (за 1-3 часа до срока); квадратными скобками обозначены град или гололедные отложения с указанием их диаметра в мм.
Облачность - указаны через наклонную черту общая и нижняя облачность в баллах и высота нижней границы облаков в метрах; квадратными скобками обозначены формы облаков: Ci - перистые, Cs - перисто-слоистые, Cc - перисто-кучевые, Ac - высококучевые, As - высокослоистые, Sc - слоисто-кучевые, Ns - слоисто-дождевые, Cu - кучевые, Cb - кучево-дождевые. Подробнее классификацию облаков см. в Атласе облаков (PDF).
T - Температура воздуха - температура, измеренная на высоте 2 м над землей.
Td - Температура точки росы - температура, при понижении до которой содержащийся в воздухе водяной пар достигнет насыщения.
f - Относительная влажность воздуха - влажноcть воздуха, измеренная на высоте 2 м над землей.
Te - Эффективная температура - температура, которую ощущает одетый по сезону человек в тени. Характеристика душности погоды. При расчете учитывается влияние влажности воздуха и скорости ветра на теплоощущения человека.
Tes - Эффективная температура на солнце - температура, которую ощущает человек, с поправкой на солнечный нагрев. Характеристика знойности погоды. Зависит от высоты солнца над горизонтом, облачности и скорости ветра. Ночью, в пасмурную погоду, а также при ветре 12 м/с и более поправка равна нулю.
P - Атмосферное давление - приведенное к уровню моря атмосферное давление.
Po - Атмосферное давление - измеренное на уровне метеостанции атмосферное давление.
Tmin - Минимальная температура - минимум температуры воздуха на высоте 2 м над землей.
Tmax - Максимальная температура - максимум температуры воздуха на высоте 2 м над землей.
R - Количество осадков - Количество выпавших осадков за период времени, мм. При наведении курсора мыши на число - период времени, за который выпало указанное количество осадков.
R24 - Количество осадков - Количество выпавших осадков за 24 часа, мм.
S - Снежный покров - Высота снежного покрова, см. При наведении курсора мыши на число - состояние снежного покрова и степень покрытия местности в баллах.